SCP
0 0 0 0 0 -0 -0 -0 -0 0 0 0 0 0 0 0 0 0 0 0 0 -0 -0 -0 -0 -0 -0 -0 -0 -0 -0 -0 -0 -0 -0 -0 -0 -0 -0 -0 -0 -0 -0
0 0 0 0 0 0 0 0 0 0 0 0 0 0 0 0 0 0 0 0 0 -0 -0 -0 -0 -0 -0 -0 -0 -0 -0 -0 -0 -0 -0 -0 -0 -0 -0 -0 -0 -0 -0
0 0 0 0 0 0 0 0 0 0 0 0 0 0 0 0 0 0 0 0 0 0 0 -0 -0 -0 -0 -0 -0 -0 -0 -0 -0 -0 -0 -0 -0 -0 -0 -0 -0 -0 -0
0 0 0 0 0 0 0 0 0 0 0 0 0 0 0 0 0 0 0 0 0 0 0 0 -0 -0 -0 -0 -0 -0 -0 -0 -0 0 -0 -0 -0 -0 -0 -0 -0 -0 -0
0 1 1 0 0 0 0 0 0 0 0 0 0 0 0 0 0 0 0 0 0 0 0 0 0 0 -0 -0 -0 0 0 0 -0 -0 -0 -0 0 -0 -0 -0 -0 -0 0
0 0 0 0 0 0 0 0 0 0 0 0 0 0 0 0 0 0 0 0 0 0 0 0 0 0 0 0 0 0 0 0 0 0 -0 -0 -0 -0 -0 -0 -0 0 0
0 0 0 1 1 0 0 0 0 0 0 0 0 0 0 0 0 0 0 0 0 0 0 0 0 0 0 0 0 0 0 0 0 0 0 0 0 -0 -0 -0 0 0 0
0 0 0 1 1 1 0 0 0 0 0 0 0 0 0 0 0 0 0 0 0 0 0 0 0 0 0 0 0 0 0 0 0 0 0 0 0 0 0 0 0 0 0
1 1 1 1 1 1 0 0 0 0 0 0 0 0 0 0 0 0 0 0 0 0 0 0 0 0 0 0 0 0 0 0 0 0 0 0 0 0 0 0 0 0 0
1 1 1 1 1 1 0 0 0 0 0 0 0 0 0 0 0 0 0 0 0 0 0 0 0 0 0 0 0 0 0 0 0 0 0 0 0 0 0 0 0 0 0
2 1 1 1 1 1 1 0 0 0 0 0 0 0 0 0 0 0 0 0 0 0 0 0 0 0 0 0 0 0 0 0 0 0 0 0 0 0 0 0 0 0 0
1 1 1 1 1 1 1 0 0 0 0 0 0 0 0 0 0 0 0 0 0 0 0 0 0 0 0 0 0 0 0 0 0 0 0 0 0 0 0 0 0 0 -0
1 1 1 1 1 1 1 0 1 0 0 0 0 0 0 0 0 0 0 0 0 0 0 0 0 0 0 0 0 0 0 0 0 0 0 0 0 0 0 0 0 0 0
0 1 0 1 1 1 1 1 0 0 0 0 0 0 0 0 0 0 0 0 0 0 0 0 0 0 0 0 0 0 0 0 0 0 0 0 0 0 0 0 0 0 0
0 0 1 0 1 1 0 0 0 0 0 0 0 0 0 0 0 0 0 0 0 0 0 0 0 0 0 0 0 0 0 0 0 0 0 0 0 0 0 0 0 0 0
0 0 0 1 0 1 0 0 0 0 0 0 0 0 0 0 0 0 0 0 0 0 0 0 0 0 0 0 0 0 0 0 0 0 0 0 0 0 0 0 0 0 0
0 0 0 0 0 0 0 0 0 0 0 0 0 0 0 0 0 0 0 0 0 0 0 0 0 0 0 0 0 0 0 0 0 0 0 0 0 0 0 0 0 0 0
0 0 0 0 0 0 0 0 0 0 0 0 0 0 0 0 0 0 0 0 0 0 0 0 0 0 0 0 0 0 0 0 0 0 0 0 0 0 0 0 0 0 0
0 0 0 0 -0 0 0 0 0 0 0 0 0 0 0 0 0 0 0 0 0 0 0 0 0 0 0 0 0 0 0 0 0 0 0 0 0 0 0 0 0 0 0
0 0 0 0 0 0 0 0 0 0 0 0 0 0 0 0 0 0 0 0 0 0 0 0 0 0 0 0 0 0 0 0 0 0 0 0 0 0 0 0 0 0 0
0 0 0 0 0 0 0 0 0 0 0 0 0 0 0 0 0 0 0 0 0 0 0 0 0 0 0 0 0 0 0 0 0 0 0 0 0 0 0 0 0 0 0
0 0 0 0 0 0 0 0 0 0 0 0 0 0 0 0 0 0 0 0 0 0 0 0 0 0 0 0 0 0 0 0 0 0 0 0 0 0 0 0 0 0 0
0 0 0 0 0 0 0 0 0 0 0 0 0 0 0 0 0 0 0 0 0 0 0 0 0 0 0 0 0 0 0 0 0 0 0 0 0 0 0 0 0 0 0
0 0 0 0 0 0 0 0 0 0 0 0 0 0 0 0 0 0 0 0 0 0 0 0 0 0 0 0 0 0 0 0 0 0 0 0 0 0 0 0 0 0 0
0 0 0 0 0 0 0 0 0 0 0 0 0 0 0 0 0 0 0 0 0 0 0 0 0 0 0 0 0 0 0 0 0 0 0 0 0 0 0 0 0 0 0
0 0 0 0 0 0 0 0 0 0 0 0 0 0 0 0 0 0 0 0 0 0 0 0 0 0 0 0 0 0 0 0 0 0 0 0 0 0 0 0 0 0 0
Wind_Speed_500mb
27 29 48 48 45 43 38 37 37 33 32 30 28 27 28 31 34 33 32 32 31 25 25 31 28 24 27 25 24 33 34 35 35 34 33 33 34 34 27 31 35 33 31
21 25 47 48 46 45 41 39 38 35 34 31 29 27 27 28 30 29 27 32 34 30 31 31 32 27 34 23 26 32 36 31 31 30 30 31 30 32 31 32 28 30 30
26 20 46 48 48 47 44 41 39 37 37 31 29 28 27 25 24 23 22 17 22 28 26 27 29 27 34 34 26 38 41 37 31 28 20 21 25 24 21 28 26 28 22
26 22 42 46 47 48 45 42 40 39 39 33 30 28 27 24 22 20 19 24 34 31 32 32 29 33 31 32 37 43 43 36 24 19 20 16 22 23 23 24 23 23 26
25 22 32 46 47 47 45 43 41 42 40 36 32 27 27 25 23 25 28 26 34 24 22 33 28 32 28 30 35 39 39 39 28 16 8 13 14 19 18 19 18 24 29
24 24 28 46 48 46 45 45 44 43 39 37 32 28 28 27 27 28 30 26 17 30 25 27 25 24 23 26 28 32 34 32 27 13 7 14 12 17 18 18 22 23 25
26 27 27 40 48 48 47 47 47 43 41 39 34 31 31 28 29 30 27 23 33 30 27 25 26 24 24 24 27 33 33 26 22 17 11 6 10 16 20 23 25 26 28
21 26 24 33 46 48 49 48 47 45 43 39 36 34 33 32 30 29 27 23 25 28 28 28 26 24 23 25 27 32 29 26 21 15 11 9 10 15 20 21 22 24 24
22 29 31 42 47 50 51 48 47 47 46 41 39 36 37 34 30 28 28 32 25 24 25 25 23 24 23 22 25 26 25 19 18 17 11 6 11 15 19 20 19 20 21
33 36 41 46 53 55 54 50 49 48 47 45 43 42 40 35 32 28 29 32 23 22 25 24 22 23 22 21 23 23 22 16 14 17 10 9 11 17 22 18 18 17 18
37 39 43 50 55 58 57 54 51 50 47 47 45 44 44 42 35 31 31 32 24 19 18 27 25 23 23 22 21 22 22 16 16 12 8 7 14 18 17 18 18 15 17
31 39 49 53 54 59 61 59 59 55 53 51 49 50 46 46 38 35 33 33 27 22 22 28 27 25 23 23 22 21 22 18 14 12 11 9 16 19 17 20 20 20 18
24 34 47 53 57 63 69 67 65 61 60 55 52 51 48 48 45 41 38 39 36 30 26 29 30 27 24 23 23 22 21 18 18 16 13 10 15 13 15 20 22 20 17
17 19 41 51 55 54 71 74 71 69 64 61 57 54 53 53 51 47 43 40 38 28 28 28 29 27 26 26 23 20 22 17 20 17 15 15 16 16 12 19 24 25 22
17 22 24 41 54 56 67 72 77 71 67 64 60 58 58 58 57 51 46 41 37 28 29 31 32 31 30 26 22 22 22 21 22 22 20 22 20 23 17 20 24 29 27
23 21 29 32 37 54 61 80 77 72 67 64 63 63 63 61 59 51 47 45 38 31 27 32 33 35 33 31 35 30 29 26 29 27 25 27 22 30 29 22 28 25 31
28 29 28 35 37 40 58 63 70 58 63 65 67 67 67 65 60 54 50 49 43 34 27 28 32 34 33 31 33 30 28 26 33 31 32 26 17 25 38 31 26 30 31
43 41 38 34 31 39 47 61 70 52 52 59 59 61 65 64 63 57 52 53 43 36 32 30 33 37 35 33 31 29 30 29 28 27 30 29 20 23 31 39 35 35 35
47 51 45 42 38 37 37 53 73 68 61 62 60 65 65 63 62 60 58 52 46 42 39 36 37 41 39 34 31 27 26 23 29 33 31 26 31 27 28 34 43 41 43
59 51 48 48 42 44 39 43 72 86 68 62 62 67 71 63 61 62 66 52 53 48 45 40 40 42 43 36 32 26 24 26 35 37 34 38 40 36 32 33 37 41 40
46 48 52 46 46 47 46 46 79 80 68 56 63 68 69 65 67 66 54 59 52 52 47 42 40 45 46 40 37 35 37 39 42 41 44 44 47 44 44 43 39 39 39
59 55 51 42 40 50 48 50 56 68 57 64 56 71 70 70 68 70 68 63 56 57 50 46 45 49 48 47 50 44 44 47 48 47 49 52 55 57 53 52 43 41 40
59 55 58 53 43 52 48 49 54 63 63 61 68 61 76 76 72 68 69 70 63 62 56 51 49 54 57 56 57 44 26 30 35 61 63 61 62 62 62 58 52 46 43
51 49 59 58 52 50 48 53 55 73 69 79 68 63 64 79 69 66 72 73 65 67 64 60 53 58 60 64 62 72 55 29 29 20 55 73 72 71 62 61 57 54 52
47 44 46 46 56 58 49 48 50 67 82 75 62 59 50 53 66 63 73 66 73 75 76 70 63 62 66 65 68 75 77 72 48 40 33 41 50 60 67 66 64 60 59
49 46 47 51 58 58 51 47 53 77 61 47 58 63 54 55 61 59 60 66 75 81 91 80 70 68 70 69 69 75 80 82 83 68 54 49 49 47 52 60 68 66 64
Wind_Direction_500mb
184 197 182 176 173 171 171 167 164 164 160 153 145 137 132 129 130 127 127 118 124 113 108 111 120 122 145 145 149 118 116 120 122 116 107 104 108 101 104 107 102 97 99
181 187 190 182 177 174 172 171 167 167 166 162 152 146 140 134 135 137 137 139 140 135 136 132 127 120 113 126 114 124 121 115 101 111 117 112 122 110 112 108 108 104 99
214 196 195 188 181 177 173 173 172 170 170 168 159 154 148 143 145 145 141 136 163 163 136 127 142 121 129 117 120 113 111 107 97 91 89 121 121 115 113 100 105 103 112
209 210 194 191 187 181 175 174 177 172 174 172 167 163 155 152 151 148 139 132 140 136 146 140 131 135 132 132 126 119 109 99 99 105 89 100 115 108 107 110 116 115 113
201 219 200 196 189 186 179 177 179 176 177 173 172 168 164 160 153 145 141 150 162 148 140 153 142 140 131 136 133 129 118 112 110 105 100 98 108 112 119 119 113 117 119
197 212 199 200 191 189 185 179 180 181 181 177 178 174 169 166 157 148 160 173 162 152 150 153 158 153 148 141 139 140 133 128 132 142 131 106 111 116 118 119 117 113 116
196 209 205 208 196 190 193 185 182 183 183 184 184 181 173 170 164 162 172 181 166 157 150 153 149 148 146 147 145 142 136 132 125 139 151 100 127 120 120 118 120 119 119
212 202 205 205 199 194 193 193 188 184 188 189 188 185 177 174 170 169 175 175 167 164 154 156 153 154 149 146 148 150 148 149 150 161 134 138 147 138 134 131 130 131 129
197 194 206 201 205 198 198 197 195 190 189 190 190 186 180 180 175 173 176 178 201 155 161 165 162 158 157 153 154 158 161 168 165 188 185 143 162 163 152 146 144 145 140
195 196 203 209 202 202 199 201 200 197 193 191 192 188 184 186 179 180 179 181 198 182 168 174 172 164 163 162 160 161 165 166 146 180 178 172 177 176 164 162 160 158 162
198 196 201 211 206 205 202 201 203 202 197 195 194 192 191 192 188 189 189 188 199 201 181 180 179 177 172 170 169 169 169 169 160 181 192 218 193 191 191 188 190 185 182
194 201 202 207 209 211 206 202 202 200 199 200 196 197 197 197 198 195 195 197 208 218 206 188 188 186 184 179 173 177 183 186 188 215 222 225 209 213 217 207 204 195 202
213 211 214 210 215 213 207 204 204 203 201 202 202 203 201 202 202 200 200 201 210 222 212 199 195 196 194 190 180 180 193 197 200 221 234 232 210 207 210 206 192 192 184
222 236 230 221 219 222 211 207 206 206 205 204 203 206 206 204 206 207 207 207 214 222 220 208 205 202 202 198 186 188 205 208 204 227 232 236 227 204 207 212 202 200 204
219 230 237 236 226 223 220 215 209 210 208 208 208 208 210 210 205 208 213 217 228 230 228 214 207 206 207 210 210 207 217 206 211 227 241 245 231 214 204 218 204 205 214
232 237 234 241 239 232 228 212 206 208 212 213 213 210 208 213 208 206 214 217 233 232 229 220 210 211 211 214 215 222 225 217 215 230 243 244 236 215 213 210 205 207 210
241 242 238 250 240 247 237 220 205 202 206 213 214 212 213 211 212 210 213 217 227 227 232 223 212 213 215 222 224 227 226 226 218 232 242 256 244 223 213 213 205 205 202
246 246 233 245 254 249 245 231 210 201 212 209 208 207 210 210 211 206 216 220 225 231 233 234 223 220 219 222 228 230 230 231 221 221 232 238 257 241 223 215 215 215 214
249 252 250 248 252 255 252 237 212 203 204 207 209 211 213 213 211 210 219 221 233 234 236 235 227 222 222 222 227 233 229 229 223 230 240 241 244 242 234 224 225 230 226
246 247 245 252 253 254 256 242 224 204 203 208 212 212 213 212 209 212 220 225 229 227 231 232 230 224 225 227 225 227 223 227 228 235 238 243 244 237 246 235 231 233 229
243 243 241 248 245 243 243 225 214 221 218 214 217 213 213 209 213 216 218 224 230 229 234 233 232 225 224 222 216 220 229 234 233 234 238 240 242 246 249 248 237 236 229
249 249 237 236 234 236 244 238 233 210 216 220 218 217 216 216 216 220 223 228 236 231 229 232 233 226 225 219 215 213 224 229 234 240 240 241 243 248 252 253 252 240 235
245 242 241 240 247 233 240 240 230 219 224 223 215 220 219 216 224 222 229 227 237 234 234 236 237 228 226 225 219 209 208 226 234 236 235 237 241 246 253 249 251 248 238
247 244 235 240 245 237 230 234 230 230 214 200 231 230 223 219 217 220 227 230 236 238 239 241 239 234 229 229 223 220 227 233 211 230 235 237 241 244 246 241 249 251 248
241 244 237 242 239 238 231 228 233 217 218 212 218 225 225 230 220 231 233 233 236 240 242 246 242 237 233 234 231 225 227 234 241 245 248 250 246 243 241 243 249 249 249
237 242 244 243 238 240 227 224 234 227 220 207 211 216 223 230 221 226 230 242 240 245 242 243 244 247 240 239 240 235 234 231 234 235 243 250 250 251 249 246 244 245 246
Wind_Speed_850mb
27 29 48 48 45 43 38 37 37 33 32 30 28 27 28 31 34 33 32 32 31 25 25 31 28 24 27 25 24 33 34 35 35 34 33 33 34 34 27 31 35 33 31
21 25 47 48 46 45 41 39 38 35 34 31 29 27 27 28 30 29 27 32 34 30 31 31 32 27 34 23 26 32 36 31 31 30 30 31 30 32 31 32 28 30 30
26 20 46 48 48 47 44 41 39 37 37 31 29 28 27 25 24 23 22 17 22 28 26 27 29 27 34 34 26 38 41 37 31 28 20 21 25 24 21 28 26 28 22
26 22 42 46 47 48 45 42 40 39 39 33 30 28 27 24 22 20 19 24 34 31 32 32 29 33 31 32 37 43 43 36 24 19 20 16 22 23 23 24 23 23 26
25 22 32 46 47 47 45 43 41 42 40 36 32 27 27 25 23 25 28 26 34 24 22 33 28 32 28 30 35 39 39 39 28 16 8 13 14 19 18 19 18 24 29
24 24 28 46 48 46 45 45 44 43 39 37 32 28 28 27 27 28 30 26 17 30 25 27 25 24 23 26 28 32 34 32 27 13 7 14 12 17 18 18 22 23 25
26 27 27 40 48 48 47 47 47 43 41 39 34 31 31 28 29 30 27 23 33 30 27 25 26 24 24 24 27 33 33 26 22 17 11 6 10 16 20 23 25 26 28
21 26 24 33 46 48 49 48 47 45 43 39 36 34 33 32 30 29 27 23 25 28 28 28 26 24 23 25 27 32 29 26 21 15 11 9 10 15 20 21 22 24 24
22 29 31 42 47 50 51 48 47 47 46 41 39 36 37 34 30 28 28 32 25 24 25 25 23 24 23 22 25 26 25 19 18 17 11 6 11 15 19 20 19 20 21
33 36 41 46 53 55 54 50 49 48 47 45 43 42 40 35 32 28 29 32 23 22 25 24 22 23 22 21 23 23 22 16 14 17 10 9 11 17 22 18 18 17 18
37 39 43 50 55 58 57 54 51 50 47 47 45 44 44 42 35 31 31 32 24 19 18 27 25 23 23 22 21 22 22 16 16 12 8 7 14 18 17 18 18 15 17
31 39 49 53 54 59 61 59 59 55 53 51 49 50 46 46 38 35 33 33 27 22 22 28 27 25 23 23 22 21 22 18 14 12 11 9 16 19 17 20 20 20 18
24 34 47 53 57 63 69 67 65 61 60 55 52 51 48 48 45 41 38 39 36 30 26 29 30 27 24 23 23 22 21 18 18 16 13 10 15 13 15 20 22 20 17
17 19 41 51 55 54 71 74 71 69 64 61 57 54 53 53 51 47 43 40 38 28 28 28 29 27 26 26 23 20 22 17 20 17 15 15 16 16 12 19 24 25 22
17 22 24 41 54 56 67 72 77 71 67 64 60 58 58 58 57 51 46 41 37 28 29 31 32 31 30 26 22 22 22 21 22 22 20 22 20 23 17 20 24 29 27
23 21 29 32 37 54 61 80 77 72 67 64 63 63 63 61 59 51 47 45 38 31 27 32 33 35 33 31 35 30 29 26 29 27 25 27 22 30 29 22 28 25 31
28 29 28 35 37 40 58 63 70 58 63 65 67 67 67 65 60 54 50 49 43 34 27 28 32 34 33 31 33 30 28 26 33 31 32 26 17 25 38 31 26 30 31
43 41 38 34 31 39 47 61 70 52 52 59 59 61 65 64 63 57 52 53 43 36 32 30 33 37 35 33 31 29 30 29 28 27 30 29 20 23 31 39 35 35 35
47 51 45 42 38 37 37 53 73 68 61 62 60 65 65 63 62 60 58 52 46 42 39 36 37 41 39 34 31 27 26 23 29 33 31 26 31 27 28 34 43 41 43
59 51 48 48 42 44 39 43 72 86 68 62 62 67 71 63 61 62 66 52 53 48 45 40 40 42 43 36 32 26 24 26 35 37 34 38 40 36 32 33 37 41 40
46 48 52 46 46 47 46 46 79 80 68 56 63 68 69 65 67 66 54 59 52 52 47 42 40 45 46 40 37 35 37 39 42 41 44 44 47 44 44 43 39 39 39
59 55 51 42 40 50 48 50 56 68 57 64 56 71 70 70 68 70 68 63 56 57 50 46 45 49 48 47 50 44 44 47 48 47 49 52 55 57 53 52 43 41 40
59 55 58 53 43 52 48 49 54 63 63 61 68 61 76 76 72 68 69 70 63 62 56 51 49 54 57 56 57 44 26 30 35 61 63 61 62 62 62 58 52 46 43
51 49 59 58 52 50 48 53 55 73 69 79 68 63 64 79 69 66 72 73 65 67 64 60 53 58 60 64 62 72 55 29 29 20 55 73 72 71 62 61 57 54 52
47 44 46 46 56 58 49 48 50 67 82 75 62 59 50 53 66 63 73 66 73 75 76 70 63 62 66 65 68 75 77 72 48 40 33 41 50 60 67 66 64 60 59
49 46 47 51 58 58 51 47 53 77 61 47 58 63 54 55 61 59 60 66 75 81 91 80 70 68 70 69 69 75 80 82 83 68 54 49 49 47 52 60 68 66 64
Wind_Direction_850mb
184 197 182 176 173 171 171 167 164 164 160 153 145 137 132 129 130 127 127 118 124 113 108 111 120 122 145 145 149 118 116 120 122 116 107 104 108 101 104 107 102 97 99
181 187 190 182 177 174 172 171 167 167 166 162 152 146 140 134 135 137 137 139 140 135 136 132 127 120 113 126 114 124 121 115 101 111 117 112 122 110 112 108 108 104 99
214 196 195 188 181 177 173 173 172 170 170 168 159 154 148 143 145 145 141 136 163 163 136 127 142 121 129 117 120 113 111 107 97 91 89 121 121 115 113 100 105 103 112
209 210 194 191 187 181 175 174 177 172 174 172 167 163 155 152 151 148 139 132 140 136 146 140 131 135 132 132 126 119 109 99 99 105 89 100 115 108 107 110 116 115 113
201 219 200 196 189 186 179 177 179 176 177 173 172 168 164 160 153 145 141 150 162 148 140 153 142 140 131 136 133 129 118 112 110 105 100 98 108 112 119 119 113 117 119
197 212 199 200 191 189 185 179 180 181 181 177 178 174 169 166 157 148 160 173 162 152 150 153 158 153 148 141 139 140 133 128 132 142 131 106 111 116 118 119 117 113 116
196 209 205 208 196 190 193 185 182 183 183 184 184 181 173 170 164 162 172 181 166 157 150 153 149 148 146 147 145 142 136 132 125 139 151 100 127 120 120 118 120 119 119
212 202 205 205 199 194 193 193 188 184 188 189 188 185 177 174 170 169 175 175 167 164 154 156 153 154 149 146 148 150 148 149 150 161 134 138 147 138 134 131 130 131 129
197 194 206 201 205 198 198 197 195 190 189 190 190 186 180 180 175 173 176 178 201 155 161 165 162 158 157 153 154 158 161 168 165 188 185 143 162 163 152 146 144 145 140
195 196 203 209 202 202 199 201 200 197 193 191 192 188 184 186 179 180 179 181 198 182 168 174 172 164 163 162 160 161 165 166 146 180 178 172 177 176 164 162 160 158 162
198 196 201 211 206 205 202 201 203 202 197 195 194 192 191 192 188 189 189 188 199 201 181 180 179 177 172 170 169 169 169 169 160 181 192 218 193 191 191 188 190 185 182
194 201 202 207 209 211 206 202 202 200 199 200 196 197 197 197 198 195 195 197 208 218 206 188 188 186 184 179 173 177 183 186 188 215 222 225 209 213 217 207 204 195 202
213 211 214 210 215 213 207 204 204 203 201 202 202 203 201 202 202 200 200 201 210 222 212 199 195 196 194 190 180 180 193 197 200 221 234 232 210 207 210 206 192 192 184
222 236 230 221 219 222 211 207 206 206 205 204 203 206 206 204 206 207 207 207 214 222 220 208 205 202 202 198 186 188 205 208 204 227 232 236 227 204 207 212 202 200 204
219 230 237 236 226 223 220 215 209 210 208 208 208 208 210 210 205 208 213 217 228 230 228 214 207 206 207 210 210 207 217 206 211 227 241 245 231 214 204 218 204 205 214
232 237 234 241 239 232 228 212 206 208 212 213 213 210 208 213 208 206 214 217 233 232 229 220 210 211 211 214 215 222 225 217 215 230 243 244 236 215 213 210 205 207 210
241 242 238 250 240 247 237 220 205 202 206 213 214 212 213 211 212 210 213 217 227 227 232 223 212 213 215 222 224 227 226 226 218 232 242 256 244 223 213 213 205 205 202
246 246 233 245 254 249 245 231 210 201 212 209 208 207 210 210 211 206 216 220 225 231 233 234 223 220 219 222 228 230 230 231 221 221 232 238 257 241 223 215 215 215 214
249 252 250 248 252 255 252 237 212 203 204 207 209 211 213 213 211 210 219 221 233 234 236 235 227 222 222 222 227 233 229 229 223 230 240 241 244 242 234 224 225 230 226
246 247 245 252 253 254 256 242 224 204 203 208 212 212 213 212 209 212 220 225 229 227 231 232 230 224 225 227 225 227 223 227 228 235 238 243 244 237 246 235 231 233 229
243 243 241 248 245 243 243 225 214 221 218 214 217 213 213 209 213 216 218 224 230 229 234 233 232 225 224 222 216 220 229 234 233 234 238 240 242 246 249 248 237 236 229
249 249 237 236 234 236 244 238 233 210 216 220 218 217 216 216 216 220 223 228 236 231 229 232 233 226 225 219 215 213 224 229 234 240 240 241 243 248 252 253 252 240 235
245 242 241 240 247 233 240 240 230 219 224 223 215 220 219 216 224 222 229 227 237 234 234 236 237 228 226 225 219 209 208 226 234 236 235 237 241 246 253 249 251 248 238
247 244 235 240 245 237 230 234 230 230 214 200 231 230 223 219 217 220 227 230 236 238 239 241 239 234 229 229 223 220 227 233 211 230 235 237 241 244 246 241 249 251 248
241 244 237 242 239 238 231 228 233 217 218 212 218 225 225 230 220 231 233 233 236 240 242 246 242 237 233 234 231 225 227 234 241 245 248 250 246 243 241 243 249 249 249
237 242 244 243 238 240 227 224 234 227 220 207 211 216 223 230 221 226 230 242 240 245 242 243 244 247 240 239 240 235 234 231 234 235 243 250 250 251 249 246 244 245 246